| time (UTC) | temp F | wind direction | speed MPH | gust MPH | rain 1hr in | rain 24hr in | rain mn in | humidity % | barometer mb |
| 20260504081523 | 44 | 1 | 0.0 | 0.0 | 0.00 | 0.00 | 0.00 | 75 | 1020.4 |
| 20260504050106 | 48 | 1 | 0.0 | 0.0 | 0.00 | 0.00 | 0.00 | 63 | 1020.9 |
| 20260504044601 | 48 | 1 | 0.0 | 0.0 | 0.00 | 0.00 | 0.00 | 62 | 1020.9 |
| 20260504043055 | 49 | 1 | 0.0 | 0.0 | 0.00 | 0.00 | 0.00 | 61 | 1020.8 |
| 20260504041552 | 49 | 1 | 0.0 | 0.0 | 0.00 | 0.00 | 0.00 | 61 | 1020.5 |
| 20260504040052 | 49 | 1 | 0.0 | 3.0 | 0.00 | 0.00 | 0.00 | 61 | 1020.4 |
| 20260504034549 | 50 | 1 | 0.0 | 3.0 | 0.00 | 0.00 | 0.00 | 60 | 1020.4 |
| 20260504033049 | 50 | 1 | 0.0 | 2.0 | 0.00 | 0.00 | 0.00 | 58 | 1020.2 |
| 20260504031550 | 51 | 1 | 0.0 | 0.0 | 0.00 | 0.00 | 0.00 | 58 | 1020.2 |
| 20260504030047 | 51 | 1 | 0.0 | 2.0 | 0.00 | 0.00 | 0.00 | 56 | 1020.3 |
| 20260504024602 | 52 | 1 | 0.0 | 0.0 | 0.00 | 0.00 | 0.00 | 55 | 1020.4 |
| 20260504023048 | 53 | 1 | 0.0 | 1.0 | 0.00 | 0.00 | 0.00 | 54 | 1020.3 |
| 20260504021547 | 54 | 1 | 0.0 | 2.0 | 0.00 | 0.00 | 0.00 | 57 | 1020.1 |
| 20260504020046 | 54 | 1 | 0.0 | 5.0 | 0.00 | 0.00 | 0.00 | 52 | 1020.1 |
| 20260504014546 | 55 | 1 | 2.0 | 7.0 | 0.00 | 0.00 | 0.00 | 50 | 1019.8 |
| 20260504013045 | 56 | 1 | 3.0 | 8.0 | 0.00 | 0.00 | 0.00 | 48 | 1019.6 |
| 20260504011545 | 56 | 1 | 2.0 | 6.0 | 0.00 | 0.00 | 0.00 | 48 | 1019.5 |
| 20260504010044 | 56 | 1 | 3.0 | 9.0 | 0.00 | 0.00 | 0.00 | 47 | 1019.3 |
| 20260504004547 | 55 | 1 | 4.0 | 9.0 | 0.00 | 0.00 | 0.00 | 48 | 1019.2 |
| 20260504003051 | 56 | 1 | 5.0 | 9.0 | 0.00 | 0.00 | 0.00 | 52 | 1018.9 |
| 20260504001545 | 56 | 1 | 6.0 | 10.0 | 0.00 | 0.00 | 0.00 | 47 | 1018.9 |
| 20260504000111 | 57 | 1 | 4.0 | 8.0 | 0.00 | 0.00 | 0.00 | 48 | 1019.0 |
| 20260503234550 | 58 | 1 | 5.0 | 8.0 | 0.00 | 0.00 | 0.00 | 48 | 1019.0 |
| 20260503233040 | 58 | 1 | 4.0 | 7.0 | 0.00 | 0.00 | 0.00 | 53 | 1018.8 |
| 20260503231539 | 60 | 1 | 2.0 | 5.0 | 0.00 | 0.00 | 0.00 | 48 | 1018.8 |
| 20260503230043 | 62 | 1 | 5.0 | 7.0 | 0.00 | 0.00 | 0.00 | 43 | 1018.8 |
| 20260503224538 | 63 | 1 | 1.0 | 7.0 | 0.00 | 0.00 | 0.00 | 43 | 1018.8 |
| 20260503223039 | 63 | 1 | 1.0 | 5.0 | 0.00 | 0.00 | 0.00 | 39 | 1018.8 |
| 20260503221547 | 64 | 1 | 2.0 | 3.0 | 0.00 | 0.00 | 0.00 | 41 | 1018.9 |
| 20260503220037 | 64 | 1 | 0.0 | 5.0 | 0.00 | 0.00 | 0.00 | 38 | 1018.9 |
| 20260503214536 | 64 | 1 | 1.0 | 6.0 | 0.00 | 0.00 | 0.00 | 39 | 1018.9 |
| 20260503213031 | 63 | 1 | 1.0 | 11.0 | 0.00 | 0.00 | 0.00 | 37 | 1019.1 |
| 20260503211528 | 64 | 1 | 2.0 | 5.0 | 0.00 | 0.00 | 0.00 | 41 | 1019.2 |
| 20260503210028 | 64 | 1 | 4.0 | 7.0 | 0.00 | 0.00 | 0.00 | 38 | 1019.2 |
| 20260503204526 | 64 | 1 | 3.0 | 5.0 | 0.00 | 0.00 | 0.00 | 39 | 1019.3 |
| 20260503203038 | 64 | 1 | 2.0 | 7.0 | 0.00 | 0.00 | 0.00 | 34 | 1019.5 |
| 20260503201532 | 64 | 1 | 1.0 | 10.0 | 0.00 | 0.00 | 0.00 | 34 | 1019.7 |
| 20260503200024 | 64 | 1 | 5.0 | 12.0 | 0.00 | 0.00 | 0.00 | 35 | 1020.1 |
| 20260503194522 | 63 | 1 | 0.0 | 4.0 | 0.00 | 0.00 | 0.00 | 35 | 1020.3 |
| 20260503193021 | 63 | 360 | 2.0 | 5.0 | 0.00 | 0.00 | 0.00 | 34 | 1020.6 |
| 20260503191519 | 62 | 1 | 0.0 | 8.0 | 0.00 | 0.00 | 0.00 | 41 | 1020.7 |
| 20260503190019 | 62 | 1 | 2.0 | 7.0 | 0.00 | 0.00 | 0.00 | 38 | 1020.9 |
| 20260503184518 | 62 | 1 | 3.0 | 8.0 | 0.00 | 0.00 | 0.00 | 35 | 1021.0 |
| 20260503183020 | 62 | 1 | 4.0 | 10.0 | 0.00 | 0.00 | 0.00 | 40 | 1021.0 |
| 20260503181518 | 61 | 1 | 2.0 | 9.0 | 0.00 | 0.00 | 0.00 | 40 | 1021.2 |
| 20260503180025 | 60 | 1 | 2.0 | 7.0 | 0.00 | 0.00 | 0.00 | 41 | 1021.2 |
| 20260503174517 | 60 | 1 | 1.0 | 9.0 | 0.00 | 0.00 | 0.00 | 43 | 1021.5 |
| 20260503173030 | 61 | 1 | 1.0 | 6.0 | 0.00 | 0.00 | 0.00 | 44 | 1021.7 |
| 20260503171514 | 62 | 1 | 0.0 | 6.0 | 0.00 | 0.00 | 0.00 | 45 | 1021.8 |